[[{"header":{"parameterUnit":"m.s-1","parameterCategory":2,"la1":30.2991,"la2":30.254,"lo1":-89.0895,"lo2":-89.0444,"dy":0.0017,"dx":0.0017,"nx":28,"ny":28,"refTime":"2024-04-19T21:00:00:Z","depth":"0","parameterNumber":2,"parameterNumberName":"U-component_of_CURRENTS"},"data":[0,0,0,0,0,0,0,0,0,0,0,0,0,0,0,0,0,0,0,0,0,0,0,0,0,0,0,0,0,0,0,0,0,0,0,0,0,0,0,0,0,0,0,0,0,0,0,0,0,0,0,0,0,0,0,0,0,0,0.1593,0.1594,0,0.1682,0.1683,0.1684,0.1721,0.1721,0.1721,0.1721,0.1752,0.1753,0.1754,0,0,0,0,0,0,0,0,0,0,0,0,0,0.1434,0.1437,0.1593,0.1594,0.1595,0.1682,0.1683,0.1684,0.1721,0.1721,0.1721,0.1721,0.1752,0.1753,0.1754,0,0,0,0,0,0,0,0,0,0,0,0,0,0.151,0.1437,0.1592,0.1625,0.1629,0.1682,0.1683,0.1684,0.1721,0.1721,0.1721,0.1721,0.1751,0.1753,0.1754,0.1764,0,0,0.1758,0.1759,0,0,0,0,0,0,0,0,0.1505,0.1515,0.1619,0.1623,0.1627,0.1692,0.1639,0.1708,0.1721,0.1685,0.1721,0.1721,0.1727,0.1731,0.1747,0.1765,0.1766,0.1758,0.1759,0.1759,0.176,0,0,0,0,0,0,0,0.15,0.1512,0.1627,0.162,0.1626,0.1629,0.1639,0.1652,0.1703,0.1688,0.1691,0.1703,0.1729,0.1745,0.1747,0.1767,0.1758,0.1759,0.176,0.1761,0.1779,0.1779,0,0,0,0,0,0,0.1494,0.1507,0.1624,0.1629,0.1567,0.1632,0.1644,0.167,0.1705,0.1711,0.1703,0.1705,0.1743,0.1746,0.1749,0.176,0.1759,0.1761,0.1761,0.1779,0.1779,0.1778,0,0,0,0,0,0,0.149,0.1504,0.162,0.157,0.1585,0.1635,0.1664,0.1672,0.1685,0.1717,0.1722,0.1708,0.1743,0.1747,0.1756,0.1761,0.1761,0.1762,0.178,0.1779,0.1779,0.1782,0,0,0,0,0,0,0.1485,0.1502,0.1517,0.157,0.1588,0.165,0.1664,0.1674,0.1694,0.1696,0.1723,0.1726,0.1743,0.1754,0.1757,0.1763,0.1763,0.178,0.1779,0.1779,0.1783,0.1782,0.1782,0,0,0,0,0,0.148,0.1502,0.1518,0.1532,0.1608,0.165,0.1659,0.1692,0.1694,0.1703,0.1716,0.1725,0.1753,0.1755,0.1759,0.1765,0.178,0.1779,0.1779,0.1783,0.1782,0.1782,0,0,0,0,0,0,0.1439,0.151,0.1528,0.157,0.1606,0.1657,0.1673,0.1687,0.1707,0.1705,0.1725,0.173,0.1741,0.1746,0.1748,0.1766,0.1766,0.1766,0.1768,0.1768,0.1767,0.1781,0.1765,0,0,0,0,0,0.1438,0.1474,0.1531,0.1562,0.1582,0.1623,0.1642,0.1663,0.169,0.1699,0.1717,0.1729,0.1743,0.1749,0.1763,0.1772,0.1791,0.1775,0.1775,0.1775,0.1787,0.1807,0.181,0.1776,0.1776,0.1776,0,0,0.1428,0.1473,0.1491,0.1555,0.1586,0.1618,0.1634,0.1665,0.1684,0.1697,0.1721,0.173,0.1744,0.176,0.1764,0.1764,0.1795,0.1774,0.1774,0.1787,0.1807,0.181,0.1814,0.1776,0.1776,0.1776,0,0,0.1427,0.1469,0.1497,0.1529,0.1579,0.1609,0.1613,0.1662,0.1678,0.1701,0.1713,0.1724,0.1746,0.1762,0.177,0.1772,0.1792,0.1768,0.178,0.1798,0.1802,0.1805,0.184,0.1846,0.1767,0.1767,0.1767,0,0.141,0.1463,0.1507,0.154,0.1565,0.1601,0.1626,0.1652,0.1693,0.1705,0.1707,0.1742,0.1752,0.1772,0.1777,0.1773,0.1792,0.1783,0.18,0.1803,0.1806,0.1841,0.1848,0.1767,0.1767,0.1767,0.1767,0,0.1433,0.1471,0.1488,0.1547,0.1574,0.1602,0.1645,0.1668,0.1686,0.1711,0.1735,0.1752,0.1771,0.1773,0.178,0.1803,0.1812,0.1799,0.1805,0.181,0.1847,0.1854,0.1767,0.1767,0.1767,0.1767,0,0,0.1409,0.1489,0.1494,0.152,0.158,0.1604,0.1638,0.1682,0.17,0.1732,0.1758,0.178,0.1786,0.1796,0.18,0.1821,0.1861,0.1822,0.1823,0.1865,0.1918,0.196,0.1972,0.1849,0.185,0.1851,0.1937,0,0.1414,0.1469,0.1507,0.1547,0.1581,0.1621,0.1648,0.1685,0.1715,0.1748,0.1771,0.1796,0.1794,0.1803,0.1822,0.1853,0.1879,0.184,0.19,0.1903,0.1946,0.1982,0.2024,0.2107,0.1944,0.1946,0.1947,0,0.1429,0.1465,0.1505,0.156,0.1575,0.1597,0.1646,0.1677,0.1729,0.1749,0.1779,0.1801,0.1842,0.1833,0.1897,0.1873,0.1899,0.1923,0.1926,0.1973,0.1959,0.2073,0.2127,0.2154,0.1958,0.1957,0.1956,0,0.1401,0.1465,0.1493,0.1513,0.1577,0.1593,0.1625,0.1674,0.1701,0.1755,0.1779,0.1821,0.1854,0.189,0.1945,0.1922,0.2024,0.1991,0.2057,0.2061,0.2114,0.2121,0.221,0.2039,0.2038,0.2038,0.2038,0,0.1401,0.1423,0.1481,0.1497,0.1521,0.1574,0.16,0.1638,0.1692,0.1721,0.1773,0.1807,0.187,0.1933,0.1965,0.2052,0.2039,0.2083,0.2091,0.2117,0.2122,0.2161,0.2076,0.2041,0.2041,0.204,0.2039,0,0.1369,0.1411,0.1443,0.1498,0.1512,0.1528,0.1584,0.1605,0.1663,0.1708,0.1729,0.1815,0.191,0.1983,0.2065,0.209,0.2144,0.2185,0.2225,0.2236,0.2313,0.2223,0.2207,0.2178,0.2275,0.2277,0.2278,0,0.1358,0.1376,0.1425,0.1435,0.1456,0.149,0.1511,0.1577,0.1607,0.1707,0.1727,0.1845,0.1923,0.2085,0.2186,0.2291,0.2212,0.236,0.232,0.2351,0.2256,0.2149,0.2116,0.2395,0.2397,0.2399,0.2401,0,0.1331,0.1347,0.1368,0.1389,0.1408,0.1432,0.1475,0.1495,0.1578,0.1635,0.1723,0.1804,0.2005,0.2161,0.2321,0.2376,0.2314,0.24,0.242,0.2356,0.2255,0.2221,0.2309,0.2417,0.2415,0.2414,0.2413,0.2412,0.1294,0.1299,0.1326,0.134,0.1359,0.1374,0.1382,0.1443,0.1499,0.1586,0.1685,0.1813,0.2086,0.234,0.2416,0.2597,0.2429,0.259,0.2482,0.2378,0.2336,0.2471,0.2587,0.2586,0.2586,0.2585,0.2585,0,0.1243,0.1263,0.1278,0.1292,0.1289,0.132,0.1355,0.1366,0.1421,0.1544,0.1642,0.1916,0.2171,0.2405,0.2666,0.2682,0.2631,0.2654,0.2526,0.249,0.2647,0.2645,0.2794,0.2794,0.2793,0.2793,0.2793,0.2793,0.1216,0.1218,0.1234,0.1222,0.123,0.1218,0.1229,0.1264,0.1345,0.1484,0.1635,0.1775,0.2106,0.249,0.2707,0.2704,0.258,0.2537,0.2457,0.2601,0.2587,0.2575,0.2564,0.2692,0.2691,0.2358,0.2355,0.2353]},{"header":{"parameterUnit":"m.s-1","parameterCategory":2,"la1":30.2991,"la2":30.254,"lo1":-89.0895,"lo2":-89.0444,"dy":0.0017,"dx":0.0017,"nx":28,"ny":28,"refTime":"2024-04-19T21:00:00:Z","depth":"0","parameterNumber":3,"parameterNumberName":"V-component_of_CURRENTS"},"data":[0,0,0,0,0,0,0,0,0,0,0,0,0,0,0,0,0,0,0,0,0,0,0,0,0,0,0,0,0,0,0,0,0,0,0,0,0,0,0,0,0,0,0,0,0,0,0,0,0,0,0,0,0,0,0,0,0,0,-0.0598,-0.0598,0,-0.0609,-0.0609,-0.0609,-0.0608,-0.0608,-0.0608,-0.0608,-0.0611,-0.0611,-0.0611,0,0,0,0,0,0,0,0,0,0,0,0,0,-0.0564,-0.0565,-0.0598,-0.0598,-0.0598,-0.0609,-0.0609,-0.0609,-0.0608,-0.0608,-0.0608,-0.0608,-0.0611,-0.0611,-0.0611,0,0,0,0,0,0,0,0,0,0,0,0,0,-0.0576,-0.0565,-0.0598,-0.06,-0.0601,-0.0609,-0.0609,-0.0608,-0.0608,-0.0608,-0.0608,-0.0608,-0.0611,-0.0611,-0.0611,-0.0612,0,0,-0.0611,-0.0612,0,0,0,0,0,0,0,0,-0.0575,-0.0577,-0.06,-0.06,-0.0601,-0.0608,-0.0598,-0.061,-0.0608,-0.0603,-0.0608,-0.0608,-0.061,-0.0611,-0.061,-0.0612,-0.0612,-0.0611,-0.0612,-0.0612,-0.0612,0,0,0,0,0,0,0,-0.0574,-0.0576,-0.06,-0.06,-0.0601,-0.0597,-0.0599,-0.06,-0.0605,-0.0604,-0.0604,-0.0608,-0.061,-0.061,-0.061,-0.0612,-0.0611,-0.0612,-0.0612,-0.0612,-0.0615,-0.0615,0,0,0,0,0,0,-0.0577,-0.0576,-0.06,-0.0601,-0.0589,-0.0598,-0.0599,-0.0605,-0.0606,-0.0606,-0.0608,-0.0608,-0.061,-0.061,-0.0611,-0.0599,-0.0612,-0.0612,-0.0612,-0.0615,-0.0615,-0.0615,0,0,0,0,0,0,-0.0576,-0.0579,-0.06,-0.059,-0.0592,-0.0599,-0.0604,-0.0605,-0.0604,-0.0609,-0.0609,-0.0607,-0.061,-0.061,-0.0611,-0.06,-0.0612,-0.0612,-0.0615,-0.0615,-0.0615,-0.0585,0,0,0,0,0,0,-0.0575,-0.0579,-0.0578,-0.059,-0.0593,-0.0599,-0.0604,-0.0605,-0.0607,-0.0607,-0.0608,-0.0609,-0.061,-0.0611,-0.0611,-0.06,-0.0612,-0.0615,-0.0615,-0.0615,-0.0586,-0.0584,-0.0583,0,0,0,0,0,-0.0574,-0.0568,-0.0578,-0.0581,-0.0594,-0.0599,-0.06,-0.0603,-0.0607,-0.0603,-0.0608,-0.0609,-0.0611,-0.0611,-0.0611,-0.06,-0.0615,-0.0615,-0.0615,-0.0587,-0.0585,-0.0583,0,0,0,0,0,0,-0.0546,-0.0569,-0.0579,-0.0579,-0.0589,-0.06,-0.0595,-0.0603,-0.0603,-0.0602,-0.0608,-0.0609,-0.0606,-0.0611,-0.061,-0.0603,-0.0613,-0.0613,-0.0592,-0.059,-0.0588,-0.0573,-0.0612,0,0,0,0,0,-0.0544,-0.0548,-0.0569,-0.0567,-0.0573,-0.0586,-0.0588,-0.0594,-0.0599,-0.0599,-0.0601,-0.0605,-0.0607,-0.0604,-0.0608,-0.0602,-0.0603,-0.0597,-0.0595,-0.0593,-0.0582,-0.0579,-0.0575,-0.0615,-0.0615,-0.0615,0,0,-0.0533,-0.0544,-0.0547,-0.0562,-0.0569,-0.0568,-0.0586,-0.0588,-0.0582,-0.0599,-0.0588,-0.0599,-0.0606,-0.0599,-0.0598,-0.06,-0.0584,-0.0593,-0.0591,-0.0581,-0.0579,-0.0575,-0.0571,-0.0615,-0.0615,-0.0615,0,0,-0.0509,-0.0525,-0.0521,-0.0528,-0.0542,-0.0552,-0.0553,-0.0567,-0.0567,-0.0566,-0.0577,-0.058,-0.0583,-0.0582,-0.0583,-0.0574,-0.0578,-0.0579,-0.0551,-0.0548,-0.0544,-0.0541,-0.0542,-0.0539,-0.0574,-0.0574,-0.0574,0,-0.0491,-0.0495,-0.0519,-0.0513,-0.0511,-0.0543,-0.0532,-0.054,-0.0549,-0.0542,-0.0558,-0.056,-0.0571,-0.0556,-0.0557,-0.0567,-0.0569,-0.0557,-0.0544,-0.0541,-0.0538,-0.054,-0.0537,-0.0572,-0.0572,-0.0573,-0.0573,0,-0.047,-0.0468,-0.0464,-0.0471,-0.0471,-0.0468,-0.0485,-0.0486,-0.0497,-0.0501,-0.0496,-0.0517,-0.0514,-0.0524,-0.0538,-0.0523,-0.0533,-0.0545,-0.0546,-0.0532,-0.0535,-0.0533,-0.057,-0.0571,-0.0571,-0.0572,0,0,-0.0427,-0.0447,-0.0441,-0.0437,-0.0448,-0.0444,-0.0437,-0.0434,-0.0422,-0.0439,-0.0419,-0.0438,-0.0454,-0.0457,-0.0478,-0.048,-0.0473,-0.0503,-0.0503,-0.0496,-0.0468,-0.0481,-0.048,-0.0483,-0.0482,-0.0481,-0.0479,0,-0.0398,-0.0385,-0.0399,-0.0375,-0.0369,-0.0386,-0.0369,-0.0368,-0.038,-0.0371,-0.0392,-0.0388,-0.0427,-0.0429,-0.0437,-0.0464,-0.0465,-0.0473,-0.0488,-0.0488,-0.0496,-0.0477,-0.0452,-0.0448,-0.0477,-0.0476,-0.0476,0,-0.0362,-0.0361,-0.0338,-0.0326,-0.0323,-0.0312,-0.0293,-0.0286,-0.0285,-0.0288,-0.0294,-0.0319,-0.0326,-0.0366,-0.0391,-0.0395,-0.0426,-0.045,-0.045,-0.0468,-0.0496,-0.0467,-0.0443,-0.0525,-0.0472,-0.0473,-0.0473,0,-0.0313,-0.0307,-0.0289,-0.0286,-0.0282,-0.0267,-0.0263,-0.0256,-0.0239,-0.0241,-0.0229,-0.025,-0.0256,-0.0294,-0.0356,-0.0371,-0.0385,-0.0411,-0.0448,-0.0449,-0.0433,-0.0434,-0.0481,-0.042,-0.042,-0.042,-0.042,0,-0.0266,-0.0245,-0.0269,-0.0255,-0.022,-0.0229,-0.0191,-0.0189,-0.0178,-0.0146,-0.0186,-0.0168,-0.0239,-0.0265,-0.0325,-0.0375,-0.036,-0.0433,-0.0444,-0.0424,-0.0424,-0.05,-0.0535,-0.042,-0.042,-0.042,-0.042,0,-0.0204,-0.0221,-0.0197,-0.0199,-0.0195,-0.0168,-0.0148,-0.0123,-0.012,-0.0083,-0.0079,-0.01,-0.0131,-0.0204,-0.0264,-0.0329,-0.0421,-0.0403,-0.0378,-0.0387,-0.0507,-0.0542,-0.0607,-0.064,-0.044,-0.044,-0.044,0,-0.0172,-0.016,-0.0155,-0.0139,-0.0138,-0.0113,-0.0088,-0.0087,-0.0066,-0.0036,-0.0012,-0.0031,-0.003,-0.0126,-0.024,-0.0334,-0.0415,-0.0388,-0.0414,-0.0502,-0.0549,-0.0603,-0.063,-0.0382,-0.0382,-0.0382,-0.0382,0,-0.0115,-0.0117,-0.0106,-0.0078,-0.0056,-0.0025,-0.0003,0.0024,0.0035,0.0071,0.011,0.0116,0.0023,-0.005,-0.0193,-0.0278,-0.0442,-0.0387,-0.0476,-0.0501,-0.0562,-0.0604,-0.0406,-0.0379,-0.038,-0.038,-0.038,-0.038,-0.0071,-0.0054,-0.0047,-0.0014,0.0013,0.0058,0.0099,0.0125,0.0179,0.0252,0.0226,0.0292,0.0151,-0.0035,-0.0197,-0.043,-0.0437,-0.0486,-0.0518,-0.0565,-0.0604,-0.0407,-0.0401,-0.0401,-0.0401,-0.0402,-0.0402,0,-0.0018,-0.0009,0.0016,0.0055,0.0098,0.0101,0.0157,0.021,0.0288,0.0369,0.042,0.0449,0.0259,0.0034,-0.0268,-0.0488,-0.0607,-0.0611,-0.0675,-0.0694,-0.0509,-0.0515,-0.0535,-0.0535,-0.0534,-0.0534,-0.0534,-0.0534,0.001,0.0045,0.0049,0.0121,0.0153,0.0226,0.0269,0.0353,0.0429,0.0585,0.0686,0.0732,0.0628,-0.0013,-0.0467,-0.0598,-0.0762,-0.0817,-0.0896,-0.0763,-0.0754,-0.0746,-0.0762,-0.0833,-0.0833,-0.1068,-0.107,-0.1072]}],[{"header":{"parameterUnit":"m.s-1","parameterCategory":2,"la1":30.2991,"la2":30.254,"lo1":-89.0895,"lo2":-89.0444,"dy":0.0017,"dx":0.0017,"nx":28,"ny":28,"refTime":"2024-04-19T21:00:00:Z","depth":"2","parameterNumber":2,"parameterNumberName":"U-component_of_CURRENTS"},"data":[0,0,0,0,0,0,0,0,0,0,0,0,0,0,0,0,0,0,0,0,0,0,0,0,0,0,0,0,0,0,0,0,0,0,0,0,0,0,0,0,0,0,0,0,0,0,0,0,0,0,0,0,0,0,0,0,0,0,0.0327,0.0327,0,0.0269,0.0268,0.0267,0.0254,0.0255,0.0255,0.0256,0.0262,0.0261,0.0261,0,0,0,0,0,0,0,0,0,0,0,0,0,0.0399,0.0397,0.0327,0.0327,0.0326,0.0269,0.0268,0.0267,0.0254,0.0255,0.0255,0.0256,0.0262,0.0261,0.0261,0,0,0,0,0,0,0,0,0,0,0,0,0,0.0354,0.0397,0.0327,0.0315,0.0313,0.0269,0.0268,0.0266,0.0254,0.0255,0.0256,0.0257,0.0262,0.0261,0.0261,0.0236,0,0,0.0258,0.0258,0,0,0,0,0,0,0,0,0.0357,0.0351,0.0317,0.0316,0.0314,0.0272,0.0295,0.026,0.0253,0.0273,0.0256,0.0257,0.0272,0.0271,0.0253,0.0237,0.0237,0.0258,0.0258,0.0258,0.0257,0,0,0,0,0,0,0,0.036,0.0354,0.0301,0.0317,0.0315,0.0303,0.0297,0.0288,0.0267,0.0272,0.0271,0.0269,0.0271,0.0253,0.0253,0.0237,0.0258,0.0258,0.0257,0.0257,0.0298,0.03,0,0,0,0,0,0,0.0373,0.0356,0.0303,0.03,0.0341,0.0301,0.0295,0.0282,0.0266,0.0264,0.0268,0.0268,0.0254,0.0254,0.0253,0.0306,0.0258,0.0257,0.0257,0.0297,0.0298,0.03,0,0,0,0,0,0,0.0374,0.0368,0.0306,0.033,0.0321,0.0299,0.0285,0.0281,0.0292,0.0263,0.0262,0.0288,0.0255,0.0254,0.0274,0.0303,0.0257,0.0256,0.0295,0.0297,0.0299,0.036,0,0,0,0,0,0,0.0376,0.0369,0.0375,0.033,0.0321,0.0295,0.0284,0.0279,0.0289,0.0289,0.0279,0.0279,0.0255,0.0276,0.0274,0.0302,0.0256,0.0293,0.0296,0.0299,0.0356,0.0364,0.037,0,0,0,0,0,0.0379,0.0376,0.0375,0.037,0.0326,0.0296,0.029,0.0276,0.0289,0.0291,0.0296,0.0281,0.0293,0.0276,0.0273,0.0302,0.0292,0.0295,0.0298,0.0352,0.0362,0.037,0,0,0,0,0,0,0.0416,0.0374,0.0372,0.0359,0.0341,0.0296,0.03,0.0295,0.0297,0.0316,0.0293,0.0292,0.032,0.0306,0.0289,0.0324,0.0292,0.0295,0.0335,0.0343,0.0351,0.0361,0.0255,0,0,0,0,0,0.0426,0.0416,0.0378,0.0376,0.0368,0.0344,0.0338,0.0331,0.0321,0.0324,0.032,0.0324,0.0325,0.0333,0.0326,0.0344,0.0339,0.0364,0.0372,0.0378,0.0386,0.0405,0.0414,0.0311,0.0311,0.0311,0,0,0.0442,0.0421,0.0416,0.0384,0.0371,0.0356,0.0343,0.0344,0.0344,0.0326,0.0344,0.0349,0.0336,0.0353,0.0366,0.0351,0.0406,0.0382,0.0388,0.0392,0.0409,0.0419,0.0428,0.0314,0.0313,0.0313,0,0,0.0458,0.045,0.0442,0.0427,0.0415,0.0393,0.0404,0.0381,0.0386,0.0397,0.0393,0.042,0.0414,0.0413,0.041,0.0457,0.0442,0.0465,0.0512,0.053,0.0538,0.0546,0.0554,0.0562,0.0471,0.0471,0.0472,0,0.0479,0.0463,0.044,0.0429,0.0426,0.0415,0.0413,0.0405,0.0399,0.0415,0.0417,0.0443,0.0438,0.0461,0.0483,0.0473,0.0482,0.0476,0.0539,0.0546,0.0553,0.0559,0.0567,0.0475,0.0474,0.0474,0.0474,0,0.0476,0.0477,0.0476,0.0455,0.0448,0.0451,0.0434,0.0449,0.0465,0.0461,0.0504,0.0503,0.0524,0.053,0.0521,0.0572,0.0563,0.0543,0.0515,0.0567,0.0571,0.0577,0.048,0.0478,0.0477,0.0477,0,0,0.0473,0.0473,0.0472,0.0481,0.0468,0.046,0.0475,0.0477,0.0504,0.0518,0.0553,0.0573,0.0599,0.06,0.0605,0.0626,0.0681,0.0618,0.0618,0.0623,0.0727,0.0754,0.0764,0.068,0.0682,0.0683,0.0712,0,0.0477,0.0479,0.0472,0.0484,0.0485,0.0489,0.0499,0.0511,0.0531,0.0561,0.0584,0.062,0.0616,0.0652,0.0673,0.0682,0.0703,0.0676,0.0679,0.0679,0.0694,0.0774,0.0709,0.0733,0.0718,0.0719,0.072,0,0.046,0.047,0.0488,0.0511,0.0512,0.0528,0.0561,0.0569,0.0604,0.0627,0.0673,0.0687,0.0739,0.0723,0.0767,0.0756,0.0756,0.0751,0.0752,0.0762,0.072,0.0679,0.0745,0.0731,0.073,0.0729,0.0728,0,0.0459,0.0473,0.05,0.0505,0.0526,0.056,0.0579,0.061,0.0633,0.0692,0.0727,0.0767,0.0813,0.082,0.0832,0.0811,0.0866,0.0823,0.0838,0.0839,0.0776,0.0769,0.0849,0.0849,0.0849,0.0849,0.0849,0,0.0447,0.047,0.0518,0.053,0.0576,0.059,0.0646,0.0668,0.0717,0.0755,0.0784,0.0827,0.0846,0.0875,0.086,0.0892,0.0892,0.0871,0.0862,0.0796,0.0792,0.0777,0.0768,0.085,0.085,0.085,0.0849,0,0.0443,0.0467,0.0503,0.0555,0.0579,0.0619,0.0686,0.0716,0.0772,0.0827,0.0856,0.0899,0.0959,0.096,0.0977,0.0946,0.0951,0.0951,0.0877,0.0861,0.0896,0.089,0.0973,0.0975,0.0976,0.0977,0.0978,0,0.0446,0.0464,0.0527,0.0555,0.0594,0.0658,0.0693,0.0746,0.0776,0.0865,0.0885,0.0973,0.103,0.1074,0.1091,0.1099,0.1018,0.0957,0.0908,0.0934,0.0916,0.0908,0.0901,0.0836,0.0836,0.0836,0.0835,0,0.0449,0.0478,0.0504,0.0565,0.0617,0.0659,0.0723,0.0749,0.0809,0.0869,0.0941,0.1007,0.1123,0.113,0.1157,0.1117,0.0957,0.0955,0.101,0.0828,0.081,0.0791,0.0787,0.0833,0.0833,0.0833,0.0834,0.0834,0.046,0.0473,0.0508,0.0568,0.0619,0.0657,0.0689,0.0744,0.0798,0.089,0.0956,0.102,0.1065,0.112,0.1105,0.1048,0.1093,0.0923,0.0921,0.0919,0.0912,0.0899,0.0936,0.0937,0.0937,0.0938,0.0938,0,0.0449,0.0468,0.0506,0.0555,0.0597,0.0655,0.0696,0.0709,0.0771,0.087,0.097,0.0911,0.0976,0.0978,0.0964,0.0975,0.094,0.0841,0.0764,0.0768,0.0771,0.0752,0.0736,0.0735,0.0734,0.0734,0,0,0.0439,0.0449,0.0459,0.0518,0.0585,0.0635,0.0668,0.0689,0.0725,0.0764,0.0795,0.0971,0.0967,0.0858,0.0862,0.0792,0.0764,0.0751,0.0914,0.0829,0.0832,0.0822,0.08,0,0,0,0,0]},{"header":{"parameterUnit":"m.s-1","parameterCategory":2,"la1":30.2991,"la2":30.254,"lo1":-89.0895,"lo2":-89.0444,"dy":0.0017,"dx":0.0017,"nx":28,"ny":28,"refTime":"2024-04-19T21:00:00:Z","depth":"2","parameterNumber":3,"parameterNumberName":"V-component_of_CURRENTS"},"data":[0,0,0,0,0,0,0,0,0,0,0,0,0,0,0,0,0,0,0,0,0,0,0,0,0,0,0,0,0,0,0,0,0,0,0,0,0,0,0,0,0,0,0,0,0,0,0,0,0,0,0,0,0,0,0,0,0,0,-0.0099,-0.01,0,-0.0125,-0.0125,-0.0125,-0.0159,-0.0159,-0.016,-0.0161,-0.0201,-0.0201,-0.0201,0,0,0,0,0,0,0,0,0,0,0,0,0,-0.0171,-0.0169,-0.0099,-0.01,-0.0101,-0.0125,-0.0125,-0.0125,-0.0158,-0.016,-0.0161,-0.0162,-0.02,-0.0201,-0.0201,0,0,0,0,0,0,0,0,0,0,0,0,0,-0.0159,-0.0168,-0.0099,-0.0123,-0.0126,-0.0125,-0.0125,-0.0125,-0.0158,-0.016,-0.0161,-0.0162,-0.02,-0.0201,-0.0201,-0.0176,0,0,-0.0202,-0.0202,0,0,0,0,0,0,0,0,-0.0159,-0.0156,-0.0119,-0.0121,-0.0124,-0.0143,-0.0165,-0.0144,-0.0158,-0.0142,-0.0161,-0.0163,-0.0184,-0.0186,-0.0182,-0.0178,-0.018,-0.0202,-0.0202,-0.0202,-0.0202,0,0,0,0,0,0,0,-0.016,-0.0156,-0.0106,-0.0119,-0.0123,-0.0164,-0.0162,-0.0161,-0.0153,-0.0144,-0.0147,-0.0155,-0.0185,-0.0182,-0.0184,-0.0181,-0.0202,-0.0202,-0.0203,-0.0203,-0.0253,-0.0254,0,0,0,0,0,0,-0.0157,-0.0155,-0.0105,-0.0107,-0.015,-0.0161,-0.016,-0.0133,-0.0153,-0.0158,-0.0154,-0.0157,-0.0181,-0.0183,-0.0185,-0.0235,-0.0202,-0.0203,-0.0203,-0.0252,-0.0253,-0.0254,0,0,0,0,0,0,-0.0158,-0.0151,-0.0104,-0.0137,-0.0135,-0.0158,-0.0128,-0.0133,-0.0162,-0.0161,-0.0166,-0.0184,-0.0182,-0.0185,-0.0216,-0.0234,-0.0203,-0.0203,-0.025,-0.0252,-0.0254,-0.0285,0,0,0,0,0,0,-0.0159,-0.015,-0.0147,-0.0135,-0.0133,-0.012,-0.0128,-0.0132,-0.0165,-0.0169,-0.0187,-0.019,-0.0183,-0.0215,-0.0216,-0.0234,-0.0203,-0.0249,-0.0251,-0.0253,-0.0283,-0.0288,-0.0292,0,0,0,0,0,-0.0161,-0.0145,-0.0145,-0.0141,-0.012,-0.0121,-0.0123,-0.0144,-0.0165,-0.0176,-0.0198,-0.0191,-0.0229,-0.0216,-0.0217,-0.0235,-0.0248,-0.0251,-0.0253,-0.028,-0.0287,-0.0292,0,0,0,0,0,0,-0.019,-0.0146,-0.0147,-0.0123,-0.0132,-0.0128,-0.0149,-0.0161,-0.0184,-0.0202,-0.0203,-0.0207,-0.0241,-0.0236,-0.0222,-0.0258,-0.0239,-0.0241,-0.0259,-0.0265,-0.027,-0.0259,-0.0204,0,0,0,0,0,-0.0189,-0.0162,-0.0144,-0.0138,-0.0138,-0.015,-0.0162,-0.0174,-0.0187,-0.0201,-0.0216,-0.0234,-0.0244,-0.0256,-0.0263,-0.028,-0.0275,-0.0294,-0.0299,-0.0303,-0.0296,-0.0312,-0.0317,-0.0263,-0.0263,-0.0263,0,0,-0.0207,-0.018,-0.0171,-0.0144,-0.0153,-0.0151,-0.016,-0.0184,-0.0194,-0.02,-0.0236,-0.0252,-0.0254,-0.0275,-0.029,-0.0279,-0.0318,-0.0306,-0.0309,-0.03,-0.0315,-0.032,-0.0325,-0.0265,-0.0264,-0.0264,0,0,-0.022,-0.02,-0.0179,-0.0178,-0.0186,-0.0184,-0.0197,-0.0206,-0.0226,-0.0254,-0.0264,-0.0293,-0.0313,-0.0313,-0.0315,-0.035,-0.0344,-0.0363,-0.0375,-0.0391,-0.0396,-0.0399,-0.0407,-0.0411,-0.0364,-0.0364,-0.0364,0,-0.0249,-0.0205,-0.0186,-0.0172,-0.0179,-0.0199,-0.0199,-0.0212,-0.0239,-0.0254,-0.0275,-0.0314,-0.0324,-0.0335,-0.0354,-0.0358,-0.0368,-0.0352,-0.0396,-0.04,-0.0403,-0.041,-0.0414,-0.0366,-0.0365,-0.0365,-0.0365,0,-0.0233,-0.0218,-0.0217,-0.0189,-0.0195,-0.0206,-0.021,-0.0234,-0.0268,-0.0281,-0.0322,-0.034,-0.0361,-0.0374,-0.0377,-0.0404,-0.0404,-0.0401,-0.0378,-0.041,-0.0416,-0.0419,-0.0368,-0.0368,-0.0367,-0.0367,0,0,-0.0238,-0.0207,-0.021,-0.0203,-0.0205,-0.0203,-0.0225,-0.0236,-0.0251,-0.0299,-0.0317,-0.0357,-0.0382,-0.0386,-0.0398,-0.0415,-0.0455,-0.0426,-0.0426,-0.0427,-0.0493,-0.048,-0.0483,-0.0467,-0.0468,-0.0468,-0.0491,0,-0.0239,-0.0211,-0.0195,-0.0198,-0.0186,-0.0203,-0.021,-0.0232,-0.0263,-0.0287,-0.0323,-0.0348,-0.0381,-0.0397,-0.0426,-0.044,-0.0465,-0.0448,-0.0468,-0.0468,-0.0447,-0.0487,-0.0407,-0.0419,-0.0494,-0.0495,-0.0495,0,-0.0215,-0.0199,-0.0191,-0.018,-0.0178,-0.0188,-0.0204,-0.0213,-0.0247,-0.0272,-0.0315,-0.0341,-0.0379,-0.04,-0.0455,-0.0449,-0.0481,-0.0494,-0.0495,-0.047,-0.0461,-0.04,-0.0423,-0.0501,-0.05,-0.05,-0.0499,0,-0.0205,-0.0193,-0.0187,-0.0187,-0.0179,-0.0192,-0.0199,-0.0224,-0.0223,-0.0268,-0.0273,-0.0333,-0.035,-0.0407,-0.0457,-0.0463,-0.0506,-0.0511,-0.0528,-0.0526,-0.0453,-0.0444,-0.0554,-0.0554,-0.0554,-0.0554,-0.0554,0,-0.0183,-0.0182,-0.0189,-0.0184,-0.0182,-0.0188,-0.0192,-0.0207,-0.022,-0.0208,-0.0271,-0.0262,-0.0356,-0.0391,-0.0449,-0.0499,-0.0507,-0.0533,-0.0535,-0.0463,-0.0456,-0.0518,-0.0513,-0.0555,-0.0555,-0.0554,-0.0554,0,-0.0161,-0.0167,-0.0158,-0.0167,-0.0174,-0.0176,-0.0174,-0.0165,-0.0188,-0.0173,-0.0183,-0.0216,-0.0265,-0.0349,-0.0422,-0.0473,-0.0525,-0.0541,-0.045,-0.0441,-0.0537,-0.0534,-0.0563,-0.0563,-0.0563,-0.0563,-0.0563,0,-0.0139,-0.0135,-0.0147,-0.0141,-0.015,-0.0154,-0.0144,-0.0157,-0.014,-0.0128,-0.0108,-0.0151,-0.0142,-0.025,-0.0356,-0.0455,-0.0506,-0.0461,-0.046,-0.0541,-0.054,-0.0537,-0.0534,-0.0377,-0.0375,-0.0374,-0.0372,0,-0.0098,-0.0117,-0.0108,-0.0103,-0.0103,-0.0079,-0.0073,-0.0048,-0.0045,-0.0015,0.0032,0.0047,-0.005,-0.0109,-0.0264,-0.0323,-0.0443,-0.0437,-0.0542,-0.039,-0.0368,-0.0365,-0.0368,-0.0361,-0.0362,-0.0363,-0.0363,-0.0364,-0.0076,-0.0061,-0.006,-0.0054,-0.0042,-0.0002,0.0032,0.0069,0.0127,0.0211,0.0192,0.0236,0.0136,-0.0016,-0.0157,-0.0341,-0.0353,-0.0389,-0.0392,-0.0397,-0.0374,-0.0353,-0.0339,-0.034,-0.0341,-0.0342,-0.0342,0,-0.0032,-0.0026,-0.0005,0.0016,0.0051,0.0033,0.0092,0.016,0.0256,0.0342,0.0418,0.0352,0.0295,0.0104,-0.0136,-0.026,-0.0267,-0.0312,-0.0285,-0.0293,-0.0301,-0.0275,-0.0213,-0.0214,-0.0214,-0.0215,0,0,-0.0008,0.0024,0.0038,0.0096,0.0107,0.0166,0.0207,0.0318,0.0399,0.0513,0.0538,0.0631,0.0382,0.0246,0.0073,-0.0089,-0.016,-0.0107,-0.0182,-0.013,-0.0138,-0.0305,-0.0267,0,0,0,0,0]}],[{"header":{"parameterUnit":"m.s-1","parameterCategory":2,"la1":30.2991,"la2":30.254,"lo1":-89.0895,"lo2":-89.0444,"dy":0.0017,"dx":0.0017,"nx":28,"ny":28,"refTime":"2024-04-19T21:00:00:Z","depth":"4","parameterNumber":2,"parameterNumberName":"U-component_of_CURRENTS"},"data":[0,0,0,0,0,0,0,0,0,0,0,0,0,0,0,0,0,0,0,0,0,0,0,0,0,0,0,0,0,0,0,0,0,0,0,0,0,0,0,0,0,0,0,0,0,0,0,0,0,0,0,0,0,0,0,0,0,0,0.0208,0.0208,0,0.0189,0.0189,0.0189,0.0186,0.0186,0.0186,0.0187,0.0154,0.0153,0.0151,0,0,0,0,0,0,0,0,0,0,0,0,0,0.0218,0.0218,0.0208,0.0208,0.0208,0.0189,0.0189,0.0189,0.0186,0.0186,0.0186,0.0187,0.0154,0.0153,0.0151,0,0,0,0,0,0,0,0,0,0,0,0,0,0.0208,0.0218,0.0208,0.0204,0.0204,0.0189,0.0189,0.0189,0.0186,0.0186,0.0187,0.0187,0.0154,0.0153,0.0151,0.0136,0,0,0.0146,0.0146,0,0,0,0,0,0,0,0,0.0209,0.0208,0.0205,0.0204,0.0204,0.019,0.018,0.017,0.0186,0.0193,0.0187,0.0187,0.0164,0.0162,0.0158,0.0135,0.0134,0.0146,0.0145,0.0145,0.0144,0,0,0,0,0,0,0,0.0209,0.0208,0.0201,0.0205,0.0204,0.0195,0.0194,0.0178,0.0177,0.0192,0.0192,0.019,0.0164,0.016,0.0157,0.0133,0.0146,0.0145,0.0144,0.0143,0.0112,0.0112,0,0,0,0,0,0,0.0213,0.0209,0.0201,0.02,0.0207,0.0195,0.0194,0.0194,0.0178,0.0175,0.0189,0.019,0.0162,0.0159,0.0156,0.0129,0.0145,0.0143,0.0142,0.0112,0.0112,0.0112,0,0,0,0,0,0,0.0213,0.0212,0.0202,0.0204,0.0202,0.0194,0.0195,0.0194,0.0198,0.0176,0.0173,0.0196,0.0162,0.0158,0.0148,0.0128,0.0143,0.0141,0.0112,0.0112,0.0112,0.008,0,0,0,0,0,0,0.0213,0.0213,0.0218,0.0204,0.0202,0.02,0.0195,0.0193,0.0195,0.0196,0.018,0.0177,0.0162,0.015,0.0146,0.0126,0.014,0.0111,0.0112,0.0112,0.0081,0.0079,0.0077,0,0,0,0,0,0.0214,0.0218,0.0218,0.0218,0.0209,0.0201,0.0199,0.0194,0.0196,0.0198,0.0187,0.0177,0.0149,0.0149,0.0144,0.0123,0.0111,0.0112,0.0112,0.0081,0.0079,0.0077,0,0,0,0,0,0,0.0225,0.0218,0.0218,0.022,0.0215,0.02,0.0202,0.02,0.0193,0.0195,0.0177,0.0172,0.016,0.0152,0.0153,0.0118,0.0129,0.0128,0.0108,0.0105,0.0104,0.0103,0.0139,0,0,0,0,0,0.023,0.0233,0.0223,0.0227,0.0225,0.0216,0.0214,0.0211,0.0201,0.02,0.0184,0.0171,0.0156,0.014,0.0134,0.0107,0.0132,0.0094,0.0092,0.009,0.0089,0.0111,0.011,0.0113,0.0113,0.0113,0,0,0.0235,0.0232,0.0234,0.023,0.0226,0.0221,0.0216,0.0216,0.0207,0.0196,0.0181,0.0171,0.0154,0.0129,0.0121,0.0116,0.0108,0.0091,0.0089,0.0089,0.0111,0.011,0.011,0.0113,0.0113,0.0113,0,0,0.0242,0.0245,0.0248,0.0245,0.0241,0.0232,0.0235,0.0222,0.0214,0.02,0.0189,0.0167,0.0146,0.0117,0.0102,0.0089,0.011,0.0089,0.0059,0.008,0.0079,0.0079,0.0132,0.0137,0.0073,0.0073,0.0073,0,0.025,0.0251,0.0248,0.0248,0.0242,0.0238,0.0234,0.0224,0.0209,0.019,0.0197,0.0152,0.0137,0.0089,0.0081,0.0081,0.0114,0.0063,0.0076,0.0077,0.0078,0.0131,0.0137,0.0071,0.0071,0.0071,0.0072,0,0.0254,0.0257,0.0259,0.0255,0.0249,0.0247,0.0231,0.022,0.0209,0.0189,0.0155,0.0132,0.0102,0.0087,0.0075,0.0055,0.0087,0.0083,0.0079,0.0075,0.0132,0.0139,0.0069,0.0069,0.007,0.007,0,0,0.0263,0.0262,0.0265,0.0262,0.0252,0.0246,0.0227,0.0198,0.018,0.0156,0.0128,0.0083,0.007,0.0054,0.0033,0.0029,0.0062,0.0052,0.0054,0.01,0.014,0.013,0.0137,0.0063,0.0063,0.0064,0.0186,0,0.0267,0.0272,0.0264,0.0261,0.0257,0.0238,0.0217,0.019,0.0168,0.0143,0.0101,0.0083,0.0058,0.0048,0.0036,0.0066,0.0076,0.0032,0.0141,0.0145,0.0131,0.0141,0.0065,0.0191,0.0193,0.0194,0.0195,0,0.0271,0.0273,0.0275,0.0256,0.0251,0.0243,0.0206,0.0186,0.0142,0.0126,0.0086,0.0079,0.0058,0.0052,0.0086,0.0065,0.0101,0.0121,0.0126,0.0129,0.0145,0.0192,0.0207,0.0206,0.0205,0.0205,0.0204,0,0.0279,0.0276,0.0278,0.0275,0.0254,0.0239,0.0218,0.0176,0.016,0.0124,0.013,0.0093,0.0114,0.0125,0.0165,0.0139,0.023,0.0205,0.0229,0.0231,0.0218,0.0216,0.0238,0.0238,0.0238,0.0238,0.0237,0,0.0278,0.028,0.0283,0.0285,0.0271,0.0247,0.0224,0.0194,0.0167,0.0168,0.0129,0.0143,0.0138,0.0184,0.0194,0.0245,0.0263,0.0234,0.0254,0.0206,0.0201,0.0225,0.0221,0.0242,0.0241,0.024,0.0239,0,0.0279,0.0287,0.0291,0.0282,0.0277,0.0265,0.0241,0.0228,0.0205,0.0215,0.0219,0.0217,0.0267,0.0273,0.0325,0.0309,0.0341,0.0356,0.0341,0.0358,0.0323,0.0317,0.0389,0.0389,0.039,0.039,0.039,0,0.0277,0.0283,0.03,0.0306,0.0302,0.0286,0.0278,0.0246,0.0247,0.0268,0.0288,0.0332,0.0334,0.0399,0.039,0.0416,0.0398,0.043,0.0322,0.0323,0.0336,0.0329,0.0322,0.0391,0.0391,0.0391,0.0391,0,0.0266,0.0286,0.0294,0.0318,0.0321,0.032,0.0314,0.0312,0.0303,0.0315,0.035,0.0357,0.0412,0.0408,0.0441,0.0446,0.0406,0.0433,0.0431,0.033,0.0326,0.0337,0.033,0.0393,0.0393,0.0392,0.0392,0,0.0263,0.0271,0.03,0.031,0.0335,0.0341,0.0328,0.034,0.0335,0.0358,0.0389,0.041,0.0437,0.043,0.0458,0.0459,0.0427,0.0403,0.0401,0.04,0.0336,0.0328,0.0421,0,0,0,0,0,0.0251,0.026,0.0283,0.0296,0.0331,0.034,0.0354,0.0343,0.0357,0.0385,0.0376,0.0417,0.0428,0.043,0.0427,0.0441,0.0422,0.0436,0.0391,0.0401,0.0399,0.0316,0,0,0,0,0,0,0.0242,0.0264,0.0277,0.0295,0.0304,0.0328,0.0336,0.0341,0.0344,0.0367,0.0369,0.0405,0.041,0.0431,0.0424,0.0427,0.0393,0.0453,0.0452,0.0401,0.04,0.0399,0.0313,0,0,0,0,0]},{"header":{"parameterUnit":"m.s-1","parameterCategory":2,"la1":30.2991,"la2":30.254,"lo1":-89.0895,"lo2":-89.0444,"dy":0.0017,"dx":0.0017,"nx":28,"ny":28,"refTime":"2024-04-19T21:00:00:Z","depth":"4","parameterNumber":3,"parameterNumberName":"V-component_of_CURRENTS"},"data":[0,0,0,0,0,0,0,0,0,0,0,0,0,0,0,0,0,0,0,0,0,0,0,0,0,0,0,0,0,0,0,0,0,0,0,0,0,0,0,0,0,0,0,0,0,0,0,0,0,0,0,0,0,0,0,0,0,0,0.0239,0.0239,0,0.0232,0.0232,0.0232,0.0243,0.0243,0.0244,0.0244,0.0238,0.0238,0.0237,0,0,0,0,0,0,0,0,0,0,0,0,0,0.0245,0.0244,0.0239,0.0239,0.0239,0.0232,0.0232,0.0232,0.0243,0.0243,0.0244,0.0244,0.0239,0.0238,0.0237,0,0,0,0,0,0,0,0,0,0,0,0,0,0.0239,0.0244,0.0239,0.0245,0.0245,0.0232,0.0232,0.0232,0.0243,0.0243,0.0244,0.0245,0.0239,0.0238,0.0237,0.0215,0,0,0.0234,0.0234,0,0,0,0,0,0,0,0,0.0239,0.0239,0.0244,0.0244,0.0245,0.0241,0.0232,0.0227,0.0242,0.0242,0.0244,0.0245,0.024,0.0239,0.0233,0.0215,0.0215,0.0234,0.0233,0.0233,0.0233,0,0,0,0,0,0,0,0.024,0.0239,0.0235,0.0244,0.0245,0.0242,0.0242,0.0231,0.0235,0.0242,0.0243,0.0245,0.024,0.0234,0.0233,0.0215,0.0234,0.0233,0.0232,0.0232,0.0197,0.0197,0,0,0,0,0,0,0.0244,0.0239,0.0235,0.0235,0.0246,0.0242,0.0242,0.024,0.0235,0.0236,0.0244,0.0245,0.0235,0.0234,0.0233,0.0233,0.0233,0.0232,0.0231,0.0198,0.0197,0.0197,0,0,0,0,0,0,0.0244,0.0243,0.0235,0.0238,0.0237,0.0241,0.0239,0.0239,0.025,0.0237,0.0238,0.0257,0.0236,0.0235,0.0236,0.0232,0.0232,0.0231,0.0198,0.0198,0.0197,0.0216,0,0,0,0,0,0,0.0244,0.0243,0.0248,0.0238,0.0237,0.0233,0.0238,0.0239,0.025,0.0252,0.0248,0.0247,0.0237,0.0237,0.0235,0.0231,0.023,0.0199,0.0198,0.0197,0.0216,0.0217,0.0217,0,0,0,0,0,0.0244,0.0245,0.0248,0.0248,0.0242,0.0234,0.0233,0.0237,0.025,0.0251,0.0253,0.0248,0.0231,0.0236,0.0233,0.0229,0.0199,0.0198,0.0197,0.0216,0.0216,0.0217,0,0,0,0,0,0,0.0249,0.0245,0.0249,0.0249,0.0246,0.0236,0.0241,0.0245,0.0247,0.0256,0.0248,0.0247,0.024,0.0233,0.024,0.0216,0.0212,0.021,0.0227,0.0227,0.0228,0.0238,0.0229,0,0,0,0,0,0.0253,0.0253,0.0248,0.0249,0.025,0.0249,0.025,0.0253,0.0252,0.0255,0.0254,0.0248,0.023,0.0231,0.0214,0.021,0.0209,0.0202,0.0203,0.0203,0.0209,0.0217,0.0219,0.0194,0.0194,0.0195,0,0,0.0254,0.0253,0.0254,0.025,0.025,0.0242,0.0252,0.0256,0.0247,0.0253,0.0251,0.0249,0.0227,0.0216,0.0213,0.0216,0.0206,0.0202,0.0203,0.0209,0.0217,0.0219,0.0221,0.0194,0.0194,0.0194,0,0,0.0251,0.0259,0.0256,0.0254,0.0258,0.025,0.0256,0.0257,0.0258,0.0256,0.0251,0.0252,0.0237,0.022,0.0207,0.02,0.0203,0.0197,0.0215,0.0223,0.0226,0.0228,0.0218,0.0219,0.0204,0.0204,0.0204,0,0.0255,0.0248,0.0254,0.025,0.0244,0.0255,0.0244,0.0241,0.0243,0.0239,0.0258,0.024,0.0231,0.0205,0.0211,0.02,0.0209,0.0217,0.0225,0.0228,0.023,0.0219,0.022,0.0205,0.0204,0.0204,0.0204,0,0.0243,0.0244,0.0243,0.0236,0.0229,0.0227,0.0218,0.0218,0.0228,0.0227,0.0223,0.0226,0.0222,0.0214,0.0216,0.0219,0.0221,0.0222,0.0229,0.0234,0.0221,0.0222,0.0206,0.0205,0.0205,0.0205,0,0,0.024,0.0235,0.0239,0.0228,0.0223,0.0211,0.0195,0.0177,0.0169,0.019,0.0184,0.018,0.0214,0.0203,0.0211,0.0226,0.0248,0.0248,0.0248,0.0246,0.0267,0.0217,0.0213,0.0268,0.0268,0.0269,0.0248,0,0.0231,0.022,0.0215,0.0194,0.0183,0.0177,0.0155,0.0144,0.0145,0.0146,0.0162,0.0169,0.0199,0.0219,0.0239,0.024,0.0255,0.0253,0.0255,0.0255,0.0218,0.0214,0.027,0.0249,0.0249,0.0249,0.0249,0,0.0221,0.0212,0.0197,0.0165,0.016,0.0149,0.0117,0.0104,0.0101,0.0112,0.0138,0.0161,0.0187,0.0221,0.0244,0.0252,0.0272,0.0275,0.0275,0.0225,0.0208,0.0244,0.0251,0.0251,0.0251,0.025,0.025,0,0.0212,0.0194,0.018,0.0174,0.0145,0.0133,0.0119,0.0102,0.0092,0.0113,0.0124,0.0153,0.0182,0.0214,0.0237,0.0259,0.0251,0.027,0.0234,0.023,0.0274,0.0272,0.0292,0.0292,0.0292,0.0293,0.0293,0,0.0197,0.0184,0.0181,0.0175,0.0147,0.0134,0.0111,0.0102,0.0102,0.0099,0.0133,0.0135,0.0194,0.0196,0.0224,0.022,0.0241,0.0235,0.0224,0.0279,0.0278,0.0274,0.0272,0.0292,0.0292,0.0292,0.0292,0,0.0183,0.0187,0.0168,0.0153,0.0146,0.0133,0.0112,0.0097,0.0107,0.0108,0.0127,0.0134,0.0135,0.015,0.0174,0.0191,0.0191,0.0184,0.0218,0.021,0.0171,0.017,0.0154,0.0152,0.015,0.0149,0.0148,0,0.0171,0.0168,0.0163,0.0157,0.0154,0.0136,0.0121,0.0112,0.0104,0.0098,0.0099,0.0095,0.0102,0.0084,0.0098,0.0108,0.0121,0.0131,0.0184,0.0166,0.0158,0.016,0.0161,0.0145,0.0145,0.0145,0.0144,0,0.0146,0.0161,0.015,0.0154,0.0145,0.0119,0.0108,0.0102,0.0099,0.0099,0.0092,0.0091,0.0064,0.0063,0.0058,0.0072,0.0132,0.0116,0.0121,0.0171,0.0156,0.015,0.0153,0.0139,0.014,0.014,0.014,0,0.0135,0.0129,0.0142,0.0138,0.0133,0.0123,0.0105,0.0097,0.0089,0.0097,0.0082,0.0066,0.0062,0.0039,0.0029,0.0033,0.0057,0.0103,0.0109,0.0115,0.011,0.0086,0.0037,0,0,0,0,0,0.0122,0.0123,0.0121,0.0121,0.0124,0.0126,0.0104,0.009,0.0086,0.009,0.0096,0.0073,0.0057,0.0027,0.0025,-0.0005,0.0046,-0.0007,0.0101,0.0109,0.0115,0.0111,0,0,0,0,0,0,0.0112,0.0115,0.0119,0.0125,0.0129,0.0123,0.0116,0.0106,0.0103,0.0104,0.0082,0.0092,0.0054,0.0067,0.0033,0.0027,0.0101,-0.002,-0.0019,0.0105,0.0111,0.0116,0.0114,0,0,0,0,0]}]]